Regional Weather Roundup
Issued by NWS Little Rock, AR

Home | Current Version | Previous Version | Graphics & Text | Print | Product List | Glossary On
Versions: 1 2 3 4 5 6 7 8 9 10 11 12 13 14 15 16 17 18 19 20 21 22 23 24 25 26 27 28 29 30 31 32 33 34 35 36 37 38 39 40 41 42 43 44 45 46 47 48 49 50
000
ASUS44 KLZK 012105
RWRLZK

WEATHER ROUNDUP FOR ARKANSAS
NATIONAL WEATHER SERVICE LITTLE ROCK AR
400 PM CDT WED JUL 01 2015

NOTE: "FAIR" INDICATES FEW OR NO CLOUDS BELOW 12,000 FEET WITH NO
SIGNIFICANT WEATHER AND/OR OBSTRUCTIONS TO VISIBILITY.

ARZ001-003-010-029-012200-
NORTHWEST ARKANSAS

CITY           SKY/WX    TMP DP  RH WIND       PRES   REMARKS
FAYETTEVILLE   MOSUNNY   86  75  69 S12G22    29.93F HX  95
FORT SMITH     MOSUNNY   92  67  43 SW14G22   29.89F HX  95
HARRISON       PTSUNNY   81  72  74 SE15      29.96S HX  85
BENTONVILLE    MOSUNNY   90  72  55 S12G18    29.93F HX  96
ROGERS         MOSUNNY   88  72  58 S10       29.93F HX  94
SILOAM SPGS    MOSUNNY   91  72  52 S16       29.93S HX  98
HIGHFILL       MOSUNNY   89  74  60 S14       29.92F HX  98
SPRINGDALE     MOSUNNY   90  72  55 SW15G22   29.95F HX  96
$$

ARZ004-005-016-012200-
NORTH CENTRAL ARKANSAS

CITY           SKY/WX    TMP DP  RH WIND       PRES   REMARKS
BATESVILLE     PTSUNNY   86  73  66 S8        29.92F HX  93
FLIPPIN          N/A     90  73  58 S10       29.91S HX  98
MTN HOME       PTSUNNY   82  75  79 S5        29.93F HX  89
$$

ARZ040-041-012200-
WEST CENTRAL ARKANSAS

CITY           SKY/WX    TMP DP  RH WIND       PRES   REMARKS
MENA           SUNNY     91  70  49 SW6       29.97F HX  97
MOUNT IDA      MOSUNNY   89  71  55 VRB6      29.94F HX  95
$$

ARZ009-017-025-026-028-012200-
NORTHEAST ARKANSAS

CITY           SKY/WX    TMP DP  RH WIND       PRES   REMARKS
JONESBORO      CLOUDY    83  72  69 S12       29.92F HX  88
NEWPORT        CLOUDY    89  74  61 S17       29.92F HX  97
WALNUT RIDGE   CLOUDY    84  70  61 S14       29.92F HX  88
BLYTHEVILLE    CLOUDY    83  67  58 SW15G21   29.92F HX  85
NW BLYTHEVILLE PTSUNNY   82  68  61 SW13      29.92F HX  85
$$

ARZ022-023-033-042-044-012200-
CENTRAL ARKANSAS

CITY           SKY/WX    TMP DP  RH WIND       PRES   REMARKS
LITTLE ROCK    PTSUNNY   91  69  48 SW10      29.94F HX  96
N LITTLE ROCK  PTSUNNY   88  73  61 SW8G17    29.94F HX  96
JACKSONVILLE   SUNNY     91  72  55 SW10      29.93F HX  98
SEARCY         MOSUNNY   90  77  65 S12       29.94F HX 103
HOT SPRINGS    MOSUNNY   90  71  53 SW10      29.96F HX  96
RUSSELLVILLE   MOSUNNY   92  72  51 SW3       29.92F HX  99
CLINTON        FAIR      84  75  74 CALM      29.95S HX  92
$$

ARZ036-012200-
EAST ARKANSAS

CITY           SKY/WX    TMP DP  RH WIND       PRES   REMARKS
WEST MEMPHIS   CLOUDY    83  75  77 SW7       29.93F HX  90
$$

ARZ050-053-066-070-073-012200-
SOUTHWEST ARKANSAS

CITY           SKY/WX    TMP DP  RH WIND       PRES   REMARKS
ARKADELPHIA    FAIR      91  74  57 SW9       29.95F HX 100
CAMDEN         MOSUNNY   91  68  46 MISG      29.96F HX  95
TEXARKANA      MOSUNNY   91  72  53 SW13      29.96F HX  98
EL DORADO      PTSUNNY   88  71  57 S9        29.98F HX  94
DE QUEEN       MOSUNNY   91  72  53 SW13G21   29.93F HX  98
$$

ARZ056-057-069-012200-
SOUTHEAST ARKANSAS

CITY           SKY/WX    TMP DP  RH WIND       PRES   REMARKS
PINE BLUFF     PTSUNNY   89  72  56 S12       29.95F HX  96
STUTTGART      PTSUNNY   91  72  52 MISG      29.94F HX  98
MONTICELLO     MOSUNNY   89  73  59 SW8       29.97F HX  97

$$





USA.gov is the U.S. government's official web portal to all federal, state and local government web resources and services.